Home   Weather   Hof (Saale)   Past weeks

Flag for Germany Past Weather in Hof (Saale), Bavaria, Germany — Yesterday and Last 2 Weeks

Now
45 °F

Clear.


Feels Like: 45 °F
Forecast: 50 / 73 °F
Wind: No wind

Location: Grafenwoehr

Current Time: Aug 31, 2016 at 4:33:25 AM

Latest Report: Aug 31, 2016 at 3:58 AM


Visibility: N/A

Pressure: 30.23 "Hg

Humidity: 100%

Dew Point: 45 °F

Location of Hof (Saale)Location

Past Weather in Hof (Saale) — Graph

°F

Hof (Saale) Temperature Yesterday

Maximum temperature yesterday: 77 °F (at 3:58 PM)
Minimum temperature yesterday: 50 °F (at 3:58 AM)
Average temperature yesterday: 63 °F

High & Low Weather Summary for the Past Weeks

 TemperatureHumidityPressure
High90 °F (Aug 26, 4:58 PM)100% (Aug 18, 7:58 AM)30.40 "Hg (Aug 18, 7:58 AM)
Low41 °F (Aug 18, 5:58 AM)22% (Aug 26, 4:58 PM)29.77 "Hg (Aug 18, 4:58 PM)
Average65 °F68%30.07 "Hg
* Reported Aug 16 2:58 AM — Aug 31 2:58 AM, Hof (Saale), Weather by CustomWeather, © 2016

Note: Actual official high and low records may vary slightly from our data, if they occured in-between our weather recording intervals... More about our weather records

Advertising

Hof (Saale) Weather History for the Previous 24 Hours

Scroll right to see more
 ConditionsComfort  
Time TempWeatherWind HumidityBarometerVisibility
2:58 AM
Wed, Aug 31
46 °FClear.No wind93%30.23 "HgN/A
1:58 AM50 °FClear.No wind88%30.22 "HgN/A
12:58 AM52 °FClear.1 mph82%30.24 "HgN/A
11:58 PM
Tue, Aug 30
54 °FClear.No wind77%30.24 "HgN/A
10:58 PM55 °FClear.No wind77%30.23 "HgN/A
9:58 PM59 °FClear.No wind68%30.23 "HgN/A
8:58 PM63 °FClear.No wind64%30.22 "HgN/A
7:58 PM68 °FSunny.2 mph53%30.21 "HgN/A
6:58 PM73 °FSunny.1 mph41%30.19 "HgN/A
5:58 PM75 °FSunny.3 mph36%30.20 "HgN/A
4:58 PM77 °FSunny.2 mph34%30.21 "HgN/A
3:58 PM77 °FSunny.2 mph34%30.22 "HgN/A
2:58 PM73 °FPartly sunny.6 mph38%30.24 "HgN/A
1:58 PM73 °FPassing clouds.1 mph41%30.25 "HgN/A
12:58 PM73 °FPartly sunny.1 mph47%30.24 "HgN/A
11:58 AM72 °FSunny.6 mph50%30.25 "HgN/A
10:58 AM68 °FSunny.2 mph56%30.27 "HgN/A
9:58 AM66 °FSunny.5 mph60%30.25 "HgN/A
8:58 AM61 °FSunny.2 mph77%30.25 "HgN/A
7:58 AM54 °FSunny.No wind88%30.23 "HgN/A
6:58 AM50 °FClear.1 mph94%30.22 "HgN/A
5:58 AM50 °FClear.No wind88%30.21 "HgN/A
4:58 AM50 °FClear.No wind94%30.20 "HgN/A
Weather by CustomWeather, © 2016

See weather overviewHow to use our weather pages